Time,TemperatureF,DewpointF,PressureIn,WindDirection,WindDirectionDegrees,WindSpeedMPH,WindSpeedGustMPH,Humidity,HourlyPrecipIn,Conditions,Clouds,dailyrainin,SoftwareType,DateUTC
2013-03-14 00:02:00,51.0,28.0,30.12,SW,218,2.0,10.0,40,0.00,,,0.00,,2013-03-14 06:02:00,
2013-03-14 00:21:00,51.0,29.0,30.12,SW,218,0.0,5.0,42,0.00,,,0.00,,2013-03-14 06:21:00,
2013-03-14 00:32:00,49.0,28.0,30.12,SW,218,1.0,4.0,44,0.00,,,0.00,,2013-03-14 06:32:00,
2013-03-14 00:42:00,49.0,28.0,30.12,SW,218,1.0,4.0,44,0.00,,,0.00,,2013-03-14 06:42:00,
2013-03-14 00:52:00,46.0,29.0,30.13,SW,218,0.0,2.0,51,0.00,,,0.00,,2013-03-14 06:52:00,
2013-03-14 01:01:00,45.0,29.0,30.14,SW,218,0.0,0.0,54,0.00,,,0.00,,2013-03-14 07:01:00,
2013-03-14 01:11:00,45.0,29.0,30.14,SW,218,0.0,0.0,54,0.00,,,0.00,,2013-03-14 07:11:00,
2013-03-14 01:22:00,44.0,28.0,30.14,SW,218,0.0,0.0,54,0.00,,,0.00,,2013-03-14 07:22:00,
2013-03-14 01:32:00,47.0,29.0,30.14,SW,218,1.0,7.0,50,0.00,,,0.00,,2013-03-14 07:32:00,
2013-03-14 01:42:00,47.0,29.0,30.14,SW,218,1.0,7.0,50,0.00,,,0.00,,2013-03-14 07:42:00,
2013-03-14 01:52:00,48.0,29.0,30.14,SW,218,3.0,9.0,48,0.00,,,0.00,,2013-03-14 07:52:00,
2013-03-14 02:02:00,48.0,29.0,30.13,SW,218,5.0,10.0,47,0.00,,,0.00,,2013-03-14 08:02:00,
2013-03-14 02:11:00,48.0,29.0,30.13,SW,218,5.0,10.0,47,0.00,,,0.00,,2013-03-14 08:11:00,
2013-03-14 02:21:00,47.0,29.0,30.14,SW,218,0.0,3.0,49,0.00,,,0.00,,2013-03-14 08:21:00,
2013-03-14 02:32:00,46.0,29.0,30.14,SW,218,0.0,0.0,51,0.00,,,0.00,,2013-03-14 08:32:00,
2013-03-14 02:41:00,46.0,29.0,30.14,SW,218,0.0,0.0,51,0.00,,,0.00,,2013-03-14 08:41:00,
2013-03-14 02:51:00,44.0,29.0,30.15,SW,218,0.0,2.0,55,0.00,,,0.00,,2013-03-14 08:51:00,
2013-03-14 03:01:00,43.0,29.0,30.15,SW,218,0.0,0.0,58,0.00,,,0.00,,2013-03-14 09:01:00,
2013-03-14 03:12:00,43.0,29.0,30.15,SW,218,0.0,0.0,58,0.00,,,0.00,,2013-03-14 09:12:00,
2013-03-14 03:22:00,43.0,29.0,30.15,SW,218,0.0,0.0,58,0.00,,,0.00,,2013-03-14 09:22:00,
2013-03-14 03:32:00,44.0,31.0,30.15,SW,218,2.0,6.0,59,0.00,,,0.00,,2013-03-14 09:32:00,
2013-03-14 03:42:00,44.0,31.0,30.15,SW,218,2.0,6.0,59,0.00,,,0.00,,2013-03-14 09:42:00,
2013-03-14 03:52:00,45.0,31.0,30.14,SW,218,2.0,8.0,57,0.00,,,0.00,,2013-03-14 09:52:00,
2013-03-14 04:02:00,46.0,31.0,30.14,SW,218,2.0,7.0,55,0.00,,,0.00,,2013-03-14 10:02:00,
2013-03-14 04:12:00,46.0,31.0,30.14,SW,218,2.0,7.0,55,0.00,,,0.00,,2013-03-14 10:12:00,
2013-03-14 04:22:00,45.0,30.0,30.14,SW,218,0.0,6.0,55,0.00,,,0.00,,2013-03-14 10:22:00,
2013-03-14 04:32:00,41.0,29.0,30.14,SW,218,0.0,3.0,63,0.00,,,0.00,,2013-03-14 10:32:00,
2013-03-14 04:42:00,41.0,29.0,30.14,SW,218,0.0,3.0,63,0.00,,,0.00,,2013-03-14 10:42:00,
2013-03-14 04:52:00,41.0,30.0,30.13,SW,218,0.0,3.0,64,0.00,,,0.00,,2013-03-14 10:52:00,
2013-03-14 05:01:00,40.0,28.0,30.14,SW,218,0.0,5.0,63,0.00,,,0.00,,2013-03-14 11:01:00,
2013-03-14 05:12:00,40.0,28.0,30.14,SW,218,0.0,5.0,63,0.00,,,0.00,,2013-03-14 11:12:00,
2013-03-14 05:22:00,43.0,30.0,30.13,SW,214,5.0,12.0,61,0.00,,,0.00,,2013-03-14 11:22:00,
2013-03-14 05:32:00,45.0,29.0,30.13,SSW,208,1.0,7.0,54,0.00,,,0.00,,2013-03-14 11:32:00,
2013-03-14 05:42:00,45.0,29.0,30.13,SSW,208,1.0,7.0,54,0.00,,,0.00,,2013-03-14 11:42:00,
2013-03-14 05:52:00,41.0,29.0,30.13,SSW,208,0.0,4.0,61,0.00,,,0.00,,2013-03-14 11:52:00,
2013-03-14 06:01:00,39.0,28.0,30.13,SSW,208,0.0,0.0,64,0.00,,,0.00,,2013-03-14 12:01:00,
2013-03-14 06:12:00,39.0,28.0,30.13,SSW,208,0.0,0.0,64,0.00,,,0.00,,2013-03-14 12:12:00,
2013-03-14 06:21:00,38.0,28.0,30.13,SSW,209,0.0,0.0,68,0.00,,,0.00,,2013-03-14 12:21:00,
2013-03-14 06:32:00,37.0,28.0,30.13,SSW,208,0.0,0.0,69,0.00,,,0.00,,2013-03-14 12:32:00,
2013-03-14 06:42:00,37.0,28.0,30.13,SSW,208,0.0,0.0,69,0.00,,,0.00,,2013-03-14 12:42:00,
2013-03-14 06:52:00,37.0,28.0,30.14,SSW,208,0.0,3.0,70,0.00,,,0.00,,2013-03-14 12:52:00,
2013-03-14 07:02:00,36.0,28.0,30.14,SSW,208,0.0,3.0,72,0.00,,,0.00,,2013-03-14 13:02:00,
2013-03-14 07:12:00,36.0,28.0,30.14,SSW,208,0.0,3.0,72,0.00,,,0.00,,2013-03-14 13:12:00,
2013-03-14 07:21:00,35.0,28.0,30.14,SSW,208,0.0,0.0,76,0.00,,,0.00,,2013-03-14 13:21:00,
2013-03-14 07:32:00,35.0,28.0,30.15,SSW,208,0.0,0.0,75,0.00,,,0.00,,2013-03-14 13:32:00,
2013-03-14 07:42:00,35.0,28.0,30.15,SSW,208,0.0,0.0,75,0.00,,,0.00,,2013-03-14 13:42:00,
2013-03-14 07:52:00,34.0,27.0,30.15,SSW,208,0.0,0.0,75,0.00,,,0.00,,2013-03-14 13:52:00,
2013-03-14 08:02:00,34.0,28.0,30.15,SSW,208,0.0,0.0,77,0.00,,,0.00,,2013-03-14 14:02:00,
2013-03-14 08:12:00,34.0,28.0,30.15,SSW,208,0.0,0.0,77,0.00,,,0.00,,2013-03-14 14:12:00,
2013-03-14 08:22:00,34.0,28.0,30.15,SSW,208,0.0,2.0,77,0.00,,,0.00,,2013-03-14 14:22:00,
2013-03-14 08:32:00,36.0,29.0,30.15,SSW,208,0.0,0.0,74,0.00,,,0.00,,2013-03-14 14:32:00,
2013-03-14 08:42:00,36.0,29.0,30.15,SSW,208,0.0,0.0,74,0.00,,,0.00,,2013-03-14 14:42:00,
2013-03-14 08:52:00,36.0,28.0,30.16,SSW,209,0.0,2.0,73,0.00,,,0.00,,2013-03-14 14:52:00,
2013-03-14 09:02:00,37.0,29.0,30.15,SSW,209,0.0,0.0,72,0.00,,,0.00,,2013-03-14 15:02:00,
2013-03-14 09:12:00,37.0,29.0,30.15,SSW,209,0.0,0.0,72,0.00,,,0.00,,2013-03-14 15:12:00,
2013-03-14 09:22:00,40.0,30.0,30.15,SSW,209,0.0,0.0,67,0.00,,,0.00,,2013-03-14 15:22:00,
2013-03-14 09:32:00,43.0,31.0,30.15,SSW,208,2.0,4.0,62,0.00,,,0.00,,2013-03-14 15:32:00,
2013-03-14 09:42:00,43.0,31.0,30.15,SSW,208,2.0,4.0,62,0.00,,,0.00,,2013-03-14 15:42:00,
2013-03-14 09:52:00,44.0,31.0,30.14,SSW,208,1.0,4.0,59,0.00,,,0.00,,2013-03-14 15:52:00,
2013-03-14 10:02:00,46.0,31.0,30.14,SSW,208,0.0,3.0,56,0.00,,,0.00,,2013-03-14 16:02:00,
2013-03-14 10:12:00,46.0,31.0,30.14,SSW,208,0.0,3.0,56,0.00,,,0.00,,2013-03-14 16:12:00,
2013-03-14 10:22:00,47.0,32.0,30.14,SSW,209,0.0,3.0,55,0.00,,,0.00,,2013-03-14 16:22:00,
2013-03-14 10:32:00,48.0,32.0,30.14,SSW,209,1.0,4.0,53,0.00,,,0.00,,2013-03-14 16:32:00,
2013-03-14 10:42:00,48.0,32.0,30.14,SSW,209,1.0,4.0,53,0.00,,,0.00,,2013-03-14 16:42:00,
2013-03-14 10:52:00,50.0,32.0,30.14,SSW,208,1.0,4.0,50,0.00,,,0.00,,2013-03-14 16:52:00,
2013-03-14 11:01:00,51.0,31.0,30.13,SSW,208,0.0,6.0,47,0.00,,,0.00,,2013-03-14 17:01:00,
2013-03-14 11:12:00,51.0,31.0,30.13,SSW,208,0.0,6.0,47,0.00,,,0.00,,2013-03-14 17:12:00,
2013-03-14 11:22:00,52.0,31.0,30.12,SSW,208,1.0,6.0,45,0.00,,,0.00,,2013-03-14 17:22:00,
2013-03-14 11:32:00,55.0,31.0,30.11,South,170,7.0,13.0,40,0.00,,,0.00,,2013-03-14 17:32:00,
2013-03-14 11:42:00,55.0,31.0,30.11,South,170,7.0,13.0,40,0.00,,,0.00,,2013-03-14 17:42:00,
2013-03-14 11:52:00,56.0,30.0,30.10,SSE,161,8.0,14.0,37,0.00,,,0.00,,2013-03-14 17:52:00,
2013-03-14 12:02:00,57.0,30.0,30.10,South,170,7.0,16.0,35,0.00,,,0.00,,2013-03-14 18:02:00,
2013-03-14 12:12:00,57.0,30.0,30.10,South,170,7.0,16.0,35,0.00,,,0.00,,2013-03-14 18:12:00,
2013-03-14 12:22:00,58.0,29.0,30.09,SSE,159,6.0,18.0,33,0.00,,,0.00,,2013-03-14 18:22:00,
2013-03-14 12:32:00,60.0,28.0,30.09,South,185,6.0,14.0,30,0.00,,,0.00,,2013-03-14 18:32:00,
2013-03-14 12:42:00,60.0,28.0,30.09,South,185,6.0,14.0,30,0.00,,,0.00,,2013-03-14 18:42:00,
2013-03-14 12:52:00,60.0,28.0,30.09,SSE,153,8.0,14.0,30,0.00,,,0.00,,2013-03-14 18:52:00,
2013-03-14 13:02:00,61.0,29.0,30.08,South,184,6.0,15.0,29,0.00,,,0.00,,2013-03-14 19:02:00,
2013-03-14 13:12:00,61.0,29.0,30.08,South,184,6.0,15.0,29,0.00,,,0.00,,2013-03-14 19:12:00,
2013-03-14 13:22:00,62.0,28.0,30.08,SSE,155,9.0,17.0,27,0.00,,,0.00,,2013-03-14 19:22:00,
2013-03-14 13:32:00,63.0,29.0,30.06,SSE,154,10.0,16.0,27,0.00,,,0.00,,2013-03-14 19:32:00,
2013-03-14 13:42:00,63.0,29.0,30.06,SSE,154,10.0,16.0,27,0.00,,,0.00,,2013-03-14 19:42:00,
2013-03-14 13:52:00,63.0,29.0,30.06,SSE,154,10.0,16.0,27,0.00,,,0.00,,2013-03-14 19:52:00,
2013-03-14 14:02:00,64.0,28.0,30.05,SSE,160,5.0,18.0,26,0.00,,,0.00,,2013-03-14 20:02:00,
2013-03-14 14:11:00,64.0,28.0,30.05,SSE,160,5.0,18.0,26,0.00,,,0.00,,2013-03-14 20:11:00,
2013-03-14 14:22:00,64.0,27.0,30.05,South,189,7.0,17.0,25,0.00,,,0.00,,2013-03-14 20:22:00,
2013-03-14 14:31:00,65.0,27.0,30.04,SSW,195,6.0,15.0,24,0.00,,,0.00,,2013-03-14 20:31:00,
2013-03-14 14:42:00,65.0,27.0,30.04,SSW,195,6.0,15.0,24,0.00,,,0.00,,2013-03-14 20:42:00,
2013-03-14 14:51:00,66.0,28.0,30.03,South,182,5.0,12.0,24,0.00,,,0.00,,2013-03-14 20:51:00,
2013-03-14 15:02:00,66.0,28.0,30.03,SSE,161,3.0,14.0,24,0.00,,,0.00,,2013-03-14 21:02:00,
2013-03-14 15:12:00,66.0,28.0,30.03,SSE,161,3.0,14.0,24,0.00,,,0.00,,2013-03-14 21:12:00,
2013-03-14 15:21:00,65.0,27.0,30.03,SSE,168,4.0,11.0,24,0.00,,,0.00,,2013-03-14 21:21:00,
2013-03-14 15:32:00,66.0,28.0,30.02,South,169,5.0,10.0,24,0.00,,,0.00,,2013-03-14 21:32:00,
2013-03-14 15:43:00,66.0,28.0,30.02,South,169,5.0,10.0,24,0.00,,,0.00,,2013-03-14 21:43:00,
2013-03-14 15:52:00,65.0,27.0,30.02,SSE,166,4.0,11.0,24,0.00,,,0.00,,2013-03-14 21:52:00,
2013-03-14 16:03:00,66.0,28.0,30.01,SSE,163,4.0,10.0,24,0.00,,,0.00,,2013-03-14 22:03:00,
2013-03-14 16:12:00,66.0,28.0,30.01,SSE,163,4.0,10.0,24,0.00,,,0.00,,2013-03-14 22:12:00,
2013-03-14 16:23:00,66.0,27.0,30.01,SSE,164,0.0,8.0,23,0.00,,,0.00,,2013-03-14 22:23:00,
2013-03-14 16:32:00,68.0,29.0,30.01,SSE,164,2.0,6.0,23,0.00,,,0.00,,2013-03-14 22:32:00,
2013-03-14 16:42:00,68.0,29.0,30.01,SSE,164,2.0,6.0,23,0.00,,,0.00,,2013-03-14 22:42:00,
2013-03-14 16:52:00,67.0,28.0,30.01,SSE,163,3.0,9.0,23,0.00,,,0.00,,2013-03-14 22:52:00,
2013-03-14 17:02:00,67.0,28.0,30.01,SSE,163,1.0,4.0,23,0.00,,,0.00,,2013-03-14 23:02:00,
2013-03-14 17:11:00,67.0,28.0,30.01,SSE,163,1.0,4.0,23,0.00,,,0.00,,2013-03-14 23:11:00,
2013-03-14 17:21:00,66.0,27.0,30.00,SSE,163,3.0,7.0,23,0.00,,,0.00,,2013-03-14 23:21:00,
2013-03-14 17:32:00,66.0,27.0,29.99,SSE,163,1.0,5.0,23,0.00,,,0.00,,2013-03-14 23:32:00,
2013-03-14 17:42:00,66.0,27.0,29.99,SSE,163,1.0,5.0,23,0.00,,,0.00,,2013-03-14 23:42:00,
2013-03-14 17:52:00,66.0,27.0,29.99,SSE,163,3.0,7.0,23,0.00,,,0.00,,2013-03-14 23:52:00,
2013-03-14 18:02:00,66.0,28.0,29.98,SSE,163,1.0,7.0,24,0.00,,,0.00,,2013-03-15 00:02:00,
2013-03-14 18:12:00,66.0,28.0,29.98,SSE,163,2.0,10.0,24,0.00,,,0.00,,2013-03-15 00:12:00,
2013-03-14 18:22:00,66.0,28.0,29.98,SSE,163,2.0,10.0,24,0.00,,,0.00,,2013-03-15 00:22:00,
2013-03-14 18:32:00,66.0,28.0,29.98,SSE,163,0.0,4.0,24,0.00,,,0.00,,2013-03-15 00:32:00,
2013-03-14 18:42:00,66.0,28.0,29.98,SSE,163,0.0,4.0,24,0.00,,,0.00,,2013-03-15 00:42:00,
2013-03-14 18:52:00,65.0,27.0,29.97,SSE,163,1.0,4.0,24,0.00,,,0.00,,2013-03-15 00:52:00,
2013-03-14 19:02:00,65.0,28.0,29.97,SSE,163,0.0,4.0,25,0.00,,,0.00,,2013-03-15 01:02:00,
2013-03-14 19:11:00,65.0,28.0,29.97,SSE,163,0.0,4.0,25,0.00,,,0.00,,2013-03-15 01:11:00,
2013-03-14 19:21:00,64.0,27.0,29.96,SSE,163,1.0,3.0,25,0.00,,,0.00,,2013-03-15 01:21:00,
2013-03-14 19:32:00,63.0,29.0,29.96,SSE,163,0.0,3.0,27,0.00,,,0.00,,2013-03-15 01:32:00,
2013-03-14 19:42:00,63.0,29.0,29.96,SSE,163,0.0,3.0,27,0.00,,,0.00,,2013-03-15 01:42:00,
2013-03-14 19:52:00,63.0,29.0,29.96,SSE,163,0.0,3.0,27,0.00,,,0.00,,2013-03-15 01:52:00,
2013-03-14 20:02:00,61.0,29.0,29.96,SSE,163,0.0,2.0,29,0.00,,,0.00,,2013-03-15 02:02:00,
2013-03-14 20:12:00,61.0,29.0,29.96,SSE,163,0.0,2.0,29,0.00,,,0.00,,2013-03-15 02:12:00,
2013-03-14 20:22:00,60.0,29.0,29.95,SSE,163,0.0,2.0,31,0.00,,,0.00,,2013-03-15 02:22:00,
2013-03-14 20:32:00,59.0,30.0,29.94,SSE,163,0.0,1.0,33,0.00,,,0.00,,2013-03-15 02:32:00,
2013-03-14 20:42:00,59.0,30.0,29.94,SSE,163,0.0,1.0,33,0.00,,,0.00,,2013-03-15 02:42:00,
2013-03-14 20:51:00,57.0,30.0,29.94,SSE,163,0.0,0.0,35,0.00,,,0.00,,2013-03-15 02:51:00,
2013-03-14 21:01:00,56.0,30.0,29.93,SSE,163,0.0,0.0,37,0.00,,,0.00,,2013-03-15 03:01:00,
2013-03-14 21:11:00,56.0,30.0,29.93,SSE,163,0.0,0.0,37,0.00,,,0.00,,2013-03-15 03:11:00,
2013-03-14 21:22:00,54.0,29.0,29.93,SSE,163,0.0,1.0,38,0.00,,,0.00,,2013-03-15 03:22:00,
2013-03-14 21:32:00,53.0,30.0,29.93,SSE,163,0.0,1.0,41,0.00,,,0.00,,2013-03-15 03:32:00,
2013-03-14 21:42:00,53.0,30.0,29.93,SSE,163,0.0,1.0,41,0.00,,,0.00,,2013-03-15 03:42:00,
2013-03-14 21:52:00,52.0,30.0,29.93,SSE,163,1.0,3.0,43,0.00,,,0.00,,2013-03-15 03:52:00,
2013-03-14 22:03:00,51.0,29.0,29.93,SSE,163,0.0,4.0,43,0.00,,,0.00,,2013-03-15 04:03:00,
2013-03-14 22:12:00,51.0,29.0,29.93,SSE,163,0.0,4.0,43,0.00,,,0.00,,2013-03-15 04:12:00,
2013-03-14 22:22:00,51.0,30.0,29.93,SSE,163,0.0,4.0,45,0.00,,,0.00,,2013-03-15 04:22:00,
2013-03-14 22:32:00,52.0,31.0,29.93,SSE,163,2.0,4.0,44,0.00,,,0.00,,2013-03-15 04:32:00,
2013-03-14 22:42:00,52.0,31.0,29.93,SSE,163,2.0,4.0,44,0.00,,,0.00,,2013-03-15 04:42:00,
2013-03-14 22:52:00,52.0,31.0,29.92,SSE,163,0.0,2.0,44,0.00,,,0.00,,2013-03-15 04:52:00,
2013-03-14 23:02:00,52.0,31.0,29.92,SSE,163,0.0,2.0,44,0.00,,,0.00,,2013-03-15 05:02:00,
2013-03-14 23:12:00,52.0,31.0,29.92,SSE,163,0.0,2.0,44,0.00,,,0.00,,2013-03-15 05:12:00,
2013-03-14 23:22:00,51.0,31.0,29.91,SSE,163,0.0,2.0,47,0.00,,,0.00,,2013-03-15 05:22:00,
2013-03-14 23:32:00,50.0,31.0,29.91,SSE,163,0.0,0.0,48,0.00,,,0.00,,2013-03-15 05:32:00,
2013-03-14 23:42:00,50.0,31.0,29.91,SSE,163,0.0,0.0,48,0.00,,,0.00,,2013-03-15 05:42:00,
2013-03-14 23:52:00,50.0,32.0,29.91,SSE,163,0.0,2.0,50,0.00,,,0.00,,2013-03-15 05:52:00,